This is the latest recevied weather packets stored in our database for station/object G7UKK-10. If no packets are shown the sender has not sent any weather packets the latest 1 day(s).
| Time | Temp. | Humidity | Pressure | Rain* | Wind** | Luminosity | Snow |
|---|---|---|---|---|---|---|---|
| 1778047817 | 4.44° C | 80% | 1017.2 hPa | 0 mm | - | - | - |
| 1778046917 | 3.89° C | 82% | 1017.3 hPa | 0 mm | - | - | - |
| 1778046017 | 3.33° C | 83% | 1017.3 hPa | 0 mm | - | - | - |
| 1778045117 | 3.33° C | 83% | 1017.3 hPa | 0 mm | - | - | - |
| 1778044217 | 2.78° C | 84% | 1017.1 hPa | 0 mm | - | - | - |
| 1778043317 | 2.78° C | 84% | 1017.3 hPa | 0 mm | - | - | - |
| 1778042417 | 3.33° C | 84% | 1017.1 hPa | 0 mm | - | - | - |
| 1778041517 | 3.33° C | 85% | 1017.2 hPa | 0 mm | - | - | - |
| 1778040617 | 3.33° C | 85% | 1017 hPa | 0 mm | - | - | - |
| 1778039717 | 3.33° C | 86% | 1017.2 hPa | 0 mm | - | - | - |
| 1778038817 | 3.33° C | 86% | 1017.3 hPa | 0 mm | - | - | - |
| 1778037917 | 3.89° C | 86% | 1017.2 hPa | 0 mm | - | - | - |
| 1778037017 | 3.89° C | 86% | 1017.5 hPa | 0 mm | - | - | - |
| 1778036117 | 3.89° C | 86% | 1017.3 hPa | 0 mm | - | - | - |
| 1778035217 | 4.44° C | 85% | 1017.3 hPa | 0 mm | - | - | - |
| 1778034317 | 4.44° C | 85% | 1017.3 hPa | 0 mm | - | - | - |
| 1778033417 | 4.44° C | 84% | 1017.2 hPa | 0 mm | - | - | - |
| 1778032517 | 5° C | 83% | 1017.2 hPa | 0 mm | - | - | - |
| 1778031617 | 5.56° C | 82% | 1017.5 hPa | 0 mm | - | - | - |
| 1778030717 | 5.56° C | 82% | 1017.5 hPa | 0 mm | - | - | - |
| 1778029817 | 5.56° C | 82% | 1017.3 hPa | 0 mm | - | - | - |
| 1778028917 | 5.56° C | 81% | 1017.7 hPa | 0 mm | - | - | - |
| 1778028017 | 5.56° C | 82% | 1017.6 hPa | 0 mm | - | - | - |
| 1778027117 | 6.11° C | 81% | 1017.6 hPa | 0 mm | - | - | - |
| 1778026217 | 6.11° C | 81% | 1017.6 hPa | 0 mm | - | - | - |
* Rain latest hour (hover to see other rain measurements)
** Current wind speed in m/s (hover to see current wind gust speed)